Zanesville, OH

9:49 PM EDT on July 25, 2017 (GMT -0400)
Zanesville Municipal

Weather History for KZZV - June, 2013

Change the Weather History Date:

Saturday, June 29, 2013

  Actual Average Record
Temperature  
Mean Temperature 68 °F 72 °F  
Max Temperature 78 °F 83 °F 101 °F (1934)
Min Temperature 58 °F 61 °F 45 °F (1938)
Degree Days  
Heating Degree Days 0 0  
Month to date heating degree days 18 30  
Since 1 June heating degree days 18 30  
Since 1 July heating degree days 5569 5569  
Cooling Degree Days 3 7  
Month to date cooling degree days 150 150  
Year to date cooling degree days 258 204  
Since 1 June cooling degree days 150 150  
Growing Degree Days 17 (Base 50)    
Moisture  
Dew Point 60 °F    
Average Humidity 80    
Maximum Humidity 100    
Minimum Humidity 60    
Precipitation  
Precipitation 0.61 in 0.13 in 2.05 in (1907)
Month to date precipitation 6.23 3.90  
Year to date precipitation 16.82 19.36  
Sea Level Pressure  
Sea Level Pressure 29.61 in    
Wind  
Wind Speed 2 mph (SSW)    
Max Wind Speed 12 mph    
Max Gust Speed 14 mph    
Visibility 5 miles    
Events Fog , Rain , Thunderstorm    
T = Trace of Precipitation, MM = Missing Value Source: NWS Daily Summary

Daily Weather History Graph

Daily Weather History Graph

Search for Another Location

Airport or City:

Trip Planner

Search our weather history database for the weather conditions in past years. The results will help you decide how hot, cold, wet, or windy it might be!

Date:

Astronomy

Jun. 29, 2013 Rise Set
Actual Time 6:01 AM EDT 9:00 PM EDT
Civil Twilight 5:29 AM EDT 9:32 PM EDT
Nautical Twilight 4:47 AM EDT 10:14 PM EDT
Astronomical Twilight 3:59 AM EDT 11:02 PM EDT
Moon 12:28 AM EDT (6/29) 1:11 PM EDT (6/29)
Length of Visible Light 16h 03m
Length of Day
14h 58m
Waning Gibbous, 56% of the Moon is Illuminated
Jun 29
Waning Gibbous
Jun 30
Last Quarter
Jul 8
New
Jul 15
First Quarter
Jul 22
Full

Hourly Weather History & Observations

Time (EDT) Temp. Dew Point Humidity Pressure Visibility Wind Dir Wind Speed Gust Speed Precip Events Conditions
12:11 AM 62.6 °F 60.8 °F 94% 29.60 in 2.5 mi Calm Calm - N/A   Partly Cloudy
12:17 AM 62.6 °F 60.8 °F 94% 29.61 in 1.2 mi Calm Calm - N/A   Scattered Clouds
12:23 AM 62.6 °F 60.8 °F 94% 29.60 in 2.0 mi Calm Calm - N/A   Scattered Clouds
12:33 AM 62.6 °F 60.8 °F 94% 29.60 in 3.0 mi SSW 3.5 mph - N/A   Partly Cloudy
12:53 AM 61.0 °F 60.1 °F 97% 29.59 in 2.0 mi Calm Calm - N/A   Clear
12:55 AM 60.8 °F 60.8 °F 100% 29.61 in 1.2 mi Calm Calm - N/A   Clear
1:04 AM 60.8 °F 60.8 °F 100% 29.60 in 1.5 mi Calm Calm - N/A   Partly Cloudy
1:19 AM 60.8 °F 60.8 °F 100% 29.60 in 1.0 mi SSW 4.6 mph - N/A   Mist
1:27 AM 60.8 °F 60.8 °F 100% 29.60 in 0.5 mi SSW 4.6 mph - N/A Fog Fog
1:32 AM 60.8 °F 60.8 °F 100% 29.60 in 1.2 mi SSW 4.6 mph - N/A   Scattered Clouds
1:34 AM 60.8 °F 60.8 °F 100% 29.60 in 2.5 mi SSW 4.6 mph - N/A   Scattered Clouds
1:41 AM 60.8 °F 60.8 °F 100% 29.60 in 6.0 mi SSW 4.6 mph - N/A   Scattered Clouds
1:53 AM 61.0 °F 60.1 °F 97% 29.58 in 9.0 mi SSW 3.5 mph - N/A   Partly Cloudy
2:53 AM 60.1 °F 59.0 °F 96% 29.57 in 5.0 mi Calm Calm - N/A   Clear
3:04 AM 59.0 °F 57.2 °F 94% 29.58 in 1.8 mi South 3.5 mph - N/A   Partly Cloudy
3:06 AM 59.0 °F 57.2 °F 94% 29.58 in 1.0 mi South 3.5 mph - N/A   Mist
3:13 AM 59.0 °F 57.2 °F 94% 29.58 in 0.5 mi Calm Calm - N/A Fog Fog
3:20 AM 59.0 °F 57.2 °F 94% 29.58 in 2.0 mi Calm Calm - N/A   Mostly Cloudy
3:28 AM 59.0 °F 57.2 °F 94% 29.58 in 8.0 mi Calm Calm - N/A   Overcast
3:36 AM 59.0 °F 57.2 °F 94% 29.58 in 1.8 mi Calm Calm - N/A   Overcast
3:39 AM 59.0 °F 57.2 °F 94% 29.58 in 0.8 mi Calm Calm - N/A   Mist
3:53 AM 60.1 °F 59.0 °F 96% 29.56 in 0.2 mi SSW 4.6 mph - N/A Fog Fog
4:04 AM 60.8 °F 59.0 °F 94% 29.58 in 1.5 mi SSW 4.6 mph - N/A   Mostly Cloudy
4:08 AM 60.8 °F 59.0 °F 94% 29.58 in 3.0 mi SSW 4.6 mph - N/A   Mostly Cloudy
4:14 AM 60.8 °F 59.0 °F 94% 29.58 in 2.5 mi SSW 3.5 mph - N/A   Scattered Clouds
4:17 AM 60.8 °F 59.0 °F 94% 29.58 in 1.2 mi SSW 3.5 mph - N/A   Mostly Cloudy
4:26 AM 59.0 °F 57.2 °F 94% 29.58 in 0.8 mi Calm Calm - N/A   Mist
4:30 AM 59.0 °F 57.2 °F 94% 29.58 in 1.8 mi Calm Calm - N/A   Mostly Cloudy
4:37 AM 57.2 °F 57.2 °F 100% 29.58 in 2.0 mi Calm Calm - N/A   Overcast
4:50 AM 57.2 °F 57.2 °F 100% 29.58 in 1.0 mi Calm Calm - N/A   Mist
4:53 AM 57.9 °F 57.0 °F 97% 29.56 in 0.8 mi Calm Calm - N/A   Mist
4:59 AM 57.2 °F 55.4 °F 94% 29.58 in 1.5 mi Calm Calm - N/A   Overcast
5:01 AM 57.2 °F 55.4 °F 94% 29.58 in 3.0 mi Calm Calm - N/A   Overcast
5:05 AM 57.2 °F 57.2 °F 100% 29.58 in 1.0 mi SW 3.5 mph - N/A   Mist
5:12 AM 59.0 °F 57.2 °F 94% 29.58 in 0.5 mi SW 3.5 mph - N/A Fog Fog
5:53 AM 59.0 °F 57.9 °F 96% 29.58 in 0.2 mi Calm Calm - N/A Fog Fog
6:20 AM 59.0 °F 57.2 °F 94% 29.60 in 2.0 mi Calm Calm - 0.01 in   Overcast
6:27 AM 57.2 °F 57.2 °F 100% 29.60 in 5.0 mi Calm Calm - 0.01 in   Mostly Cloudy
6:38 AM 59.0 °F 57.2 °F 94% 29.60 in 8.0 mi Calm Calm - 0.01 in   Scattered Clouds
6:53 AM 59.0 °F 57.9 °F 96% 29.59 in 6.0 mi Calm Calm - 0.01 in   Partly Cloudy
7:53 AM 62.1 °F 60.1 °F 93% 29.60 in 10.0 mi SSW 3.5 mph - N/A   Overcast
8:53 AM 63.0 °F 61.0 °F 93% 29.61 in 10.0 mi SSW 4.6 mph - N/A   Overcast
9:53 AM 64.0 °F 62.1 °F 93% 29.62 in 10.0 mi SSW 4.6 mph - N/A   Overcast
10:36 AM 64.4 °F 62.6 °F 94% 29.62 in 10.0 mi South 3.5 mph - 0.00 in   Overcast
10:53 AM 66.0 °F 62.1 °F 87% 29.62 in 10.0 mi Calm Calm - 0.00 in   Overcast
11:53 AM 70.0 °F 63.0 °F 78% 29.61 in 10.0 mi Calm Calm - N/A   Overcast
12:53 PM 73.9 °F 64.0 °F 71% 29.60 in 10.0 mi SSE 6.9 mph - N/A   Mostly Cloudy
1:53 PM 75.9 °F 62.1 °F 62% 29.59 in 10.0 mi Variable 4.6 mph - N/A   Scattered Clouds
2:53 PM 77.0 °F 62.1 °F 60% 29.59 in 10.0 mi Calm Calm - N/A   Mostly Cloudy
3:53 PM 75.0 °F 63.0 °F 66% 29.59 in 10.0 mi South 3.5 mph - N/A   Overcast
4:03 PM 73.4 °F 62.6 °F 69% 29.61 in 0.8 mi Calm Calm - 0.12 in Rain Heavy Rain
4:11 PM 73.4 °F 62.6 °F 69% 29.61 in 2.5 mi Calm Calm - 0.13 in Rain Light Rain
4:13 PM 73.4 °F 64.4 °F 73% 29.61 in 7.0 mi Calm Calm - 0.13 in Rain , Thunderstorm Light Rain
4:43 PM 69.8 °F 64.4 °F 83% 29.64 in 1.0 mi South 5.8 mph - 0.34 in Rain , Thunderstorm Thunderstorms and Rain
4:46 PM 68.0 °F 62.6 °F 83% 29.63 in 0.5 mi Variable 4.6 mph - 0.44 in Rain , Thunderstorm Heavy Thunderstorms and Rain
4:53 PM 66.9 °F 64.0 °F 90% 29.61 in 0.8 mi ENE 6.9 mph - 0.51 in Rain , Thunderstorm Heavy Thunderstorms and Rain
4:56 PM 66.2 °F 62.6 °F 88% 29.62 in 1.8 mi ENE 5.8 mph - 0.01 in Rain , Thunderstorm Thunderstorms and Rain
5:00 PM 64.4 °F 62.6 °F 94% 29.62 in 3.0 mi NNE 4.6 mph - 0.02 in Rain , Thunderstorm Thunderstorms and Rain
5:12 PM 64.4 °F 62.6 °F 94% 29.62 in 2.0 mi North 5.8 mph - 0.08 in Rain , Thunderstorm Heavy Thunderstorms and Rain
5:21 PM 64.4 °F 62.6 °F 94% 29.62 in 10.0 mi North 4.6 mph - 0.08 in Thunderstorm Mostly Cloudy
5:53 PM 68.0 °F 64.9 °F 90% 29.62 in 10.0 mi Calm Calm - 0.08 in   Mostly Cloudy
6:15 PM 69.8 °F 66.2 °F 88% 29.63 in 10.0 mi Calm Calm - N/A Thunderstorm Thunderstorm
6:39 PM 68.0 °F 64.4 °F 88% 29.64 in 10.0 mi Calm Calm - N/A Thunderstorm Mostly Cloudy
6:53 PM 69.1 °F 64.9 °F 87% 29.63 in 10.0 mi ENE 4.6 mph - N/A Thunderstorm Thunderstorm
7:32 PM 66.2 °F 60.8 °F 83% 29.66 in 10.0 mi NE 5.8 mph - N/A Thunderstorm Mostly Cloudy
7:53 PM 64.9 °F 61.0 °F 87% 29.66 in 10.0 mi North 3.5 mph - N/A Thunderstorm Partly Cloudy
8:13 PM 64.4 °F 62.6 °F 94% 29.68 in 10.0 mi WNW 4.6 mph - N/A   Scattered Clouds
8:20 PM 64.4 °F 62.6 °F 94% 29.69 in 10.0 mi West 5.8 mph - N/A   Mostly Cloudy
8:29 PM 64.4 °F 62.6 °F 94% 29.69 in 7.0 mi NW 5.8 mph - 0.01 in Rain , Thunderstorm Light Thunderstorms and Rain
8:38 PM 66.2 °F 62.6 °F 88% 29.68 in 10.0 mi North 4.6 mph - 0.01 in   Overcast
8:53 PM 66.0 °F 63.0 °F 90% 29.66 in 10.0 mi NE 5.8 mph - 0.01 in   Mostly Cloudy
9:53 PM 63.0 °F 61.0 °F 93% 29.66 in 10.0 mi Calm Calm - N/A   Partly Cloudy
10:53 PM 63.0 °F 61.0 °F 93% 29.67 in 3.0 mi Calm Calm - N/A   Clear
10:58 PM 62.6 °F 60.8 °F 94% 29.69 in 1.5 mi Calm Calm - N/A   Clear
11:00 PM 62.6 °F 60.8 °F 94% 29.69 in 0.8 mi ENE 3.5 mph - N/A   Mist
11:13 PM 62.6 °F 60.8 °F 94% 29.70 in 1.2 mi Calm Calm - N/A   Scattered Clouds
11:15 PM 62.6 °F 60.8 °F 94% 29.70 in 2.0 mi NNE 3.5 mph - N/A   Partly Cloudy
11:22 PM 62.6 °F 60.8 °F 94% 29.70 in 7.0 mi NNE 3.5 mph - N/A   Partly Cloudy
11:53 PM 62.1 °F 60.1 °F 93% 29.69 in 10.0 mi Calm Calm - N/A   Clear